Location: Newark
(20.0000°S, 47.0000°E)
Time: 16:35:56
(UTC+00:00)

Envisat - Visible Passes

Search period start: 18 March 2019 00:00
Search period end: 28 March 2019 00:00
Orbit: 764 x 766 km, 98.2° (Epoch: 18 March)

Date Brightness Start Highest point End Pass type
(mag) Time Alt. Az. Time Alt. Az. Time Alt. Az.
18 Mar 3.1 15:49:49 10° SSE 15:54:50 54° ENE 15:59:46 10° N visible
18 Mar 6.2 17:32:27 10° WSW 17:33:17 10° WSW 17:34:07 10° W visible
19 Mar 5.0 16:52:34 10° SSW 16:56:53 28° WSW 17:01:10 10° NW visible
20 Mar 3.2 16:15:12 10° S 16:20:19 75° WSW 16:25:22 10° NNW visible
21 Mar 3.4 15:38:49 10° SSE 15:43:36 40° E 15:48:19 10° N visible
21 Mar 5.9 17:19:32 10° SW 17:22:12 14° WSW 17:24:50 10° WNW visible
22 Mar 4.5 16:41:04 10° S 16:45:44 37° WSW 16:50:22 10° NW visible
23 Mar 2.9 16:04:00 10° SSE 16:09:07 82° ENE 16:14:12 10° N visible
24 Mar 3.7 15:27:55 10° SE 15:32:22 30° E 15:36:46 10° NNE visible
24 Mar 5.5 17:07:33 10° SSW 17:11:05 19° WSW 17:14:35 10° WNW visible
25 Mar 6.2 02:33:30 10° E 02:35:39 13° ESE 02:37:48 10° SE visible
25 Mar 3.9 16:29:39 10° S 16:34:34 49° WSW 16:39:27 10° NNW visible
26 Mar 3.0 15:52:52 10° SSE 15:57:55 61° ENE 16:02:54 10° N visible
27 Mar 4.1 15:17:11 10° SE 15:21:08 23° E 15:25:03 10° NNE visible
27 Mar 5.1 16:55:50 10° SSW 16:59:57 25° WSW 17:04:03 10° NW visible
